User: anonymous   Login
Location: Fort Wayne
(41.1310°N, 85.1290°W)
Time: 21:46:44
(UTC-05:00)
Language:

Cosmos 2219 Rocket - Orbit

View from above orbital plane
View from above orbital plane
View from above satellite
View from above satellite

Ground track
Ground track

The orbit data is extracted from the following two-line orbital elements,

1 22220U 92076B   14330.34398228  .00000103  00000-0  75796-4 0  4641
2 22220 071.0011 224.8202 0015071 259.2445 218.8227 14.16337287138548
Epoch (UTC): 26 November 2014 08:15:20
Eccentricity: 0.0015071
inclination: 71.0011°
perigee height: 827 km
apogee height: 848 km
right ascension of ascending node: 224.8202°
argument of perigee: 259.2445°
revolutions per day: 14.16337287
mean anomaly at epoch: 218.8227°
orbit number at epoch: 13854

The dashed part of the orbit path shows where the satellite is in the earth's shadow,  

DLR